When you browse on this site, cookies collect data to enhance your experience and personalize the content and advertising you see.
Visit our Privacy Policy to learn more. By continuing to use the site, you agree to this use of cookies and data.
  • în România
  • Lista ţărilor
  • Pe 7 zile
  • Temperatura apei
  • Hartă satelitară
  • Meteo pe hartă
  • Widget-uri
  • user-avatar
    Intrare

    Meteo pe oră la Samarskiy

    Astăzi, 24 Martie, Duminică

    Timp Temperatura Precipitaţii Vânt Presiune Umiditate
    00:00 -5°C° 0 mm 2 m/s 756 mmHg 94%
    01:00 -5°C° 0 mm 2 m/s 756 mmHg 93%
    02:00 -5°C° 0 mm 2 m/s 756 mmHg 93%
    03:00 -5°C° 0 mm 2 m/s 755 mmHg 93%
    04:00 -5°C° 0 mm 2 m/s 755 mmHg 93%
    05:00 -5°C° 0 mm 2 m/s 756 mmHg 93%
    06:00 -5°C° 0 mm 2 m/s 756 mmHg 93%
    07:00 -4°C° 0 mm 2 m/s 756 mmHg 92%
    08:00 -3°C° 0 mm 2 m/s 755 mmHg 92%
    09:00 -2°C° 0 mm 2 m/s 755 mmHg 92%
    10:00 -1°C° 0.1 mm 2 m/s 755 mmHg 94%
    11:00 -1°C° 0.1 mm 2 m/s 755 mmHg 96%
    12:00 -1°C° 0.1 mm 2 m/s 754 mmHg 98%
    13:00 -1°C° 0.1 mm 2 m/s 754 mmHg 98%
    14:00 0°C° 0.1 mm 3 m/s 753 mmHg 98%
    15:00 +1°C° 0 mm 2 m/s 753 mmHg 99%
    16:00 -1°C° 0 mm 3 m/s 752 mmHg 98%
    17:00 -1°C° 0 mm 3 m/s 752 mmHg 98%
    18:00 -1°C° 0 mm 3 m/s 751 mmHg 98%
    19:00 -2°C° 0 mm 4 m/s 750 mmHg 97%
    20:00 -2°C° 0 mm 4 m/s 749 mmHg 96%
    21:00 -2°C° 0 mm 5 m/s 748 mmHg 96%
    22:00 -2°C° 0.7 mm 5 m/s 746 mmHg 96%
    23:00 -2°C° 0.7 mm 6 m/s 745 mmHg 96%

    Mâine, 25 Martie, Luni

    Timp Temperatura Precipitaţii Vânt Presiune Umiditate
    00:00 -2°C° 0.7 mm 6 m/s 744 mmHg 96%
    01:00 -2°C° 1.3 mm 6 m/s 742 mmHg 96%
    02:00 -1°C° 1.3 mm 5 m/s 741 mmHg 97%
    03:00 0°C° 1.3 mm 5 m/s 740 mmHg 98%
    04:00 -1°C° 0.2 mm 5 m/s 739 mmHg 96%
    05:00 -1°C° 0.2 mm 5 m/s 739 mmHg 93%
    06:00 -2°C° 0.2 mm 5 m/s 738 mmHg 91%
    07:00 -3°C° 0.1 mm 6 m/s 738 mmHg 91%
    08:00 -2°C° 0.1 mm 6 m/s 738 mmHg 91%
    09:00 -2°C° 0.1 mm 7 m/s 738 mmHg 91%
    10:00 -2°C° 0.2 mm 8 m/s 739 mmHg 90%
    11:00 -2°C° 0.2 mm 8 m/s 739 mmHg 89%
    12:00 -3°C° 0.2 mm 9 m/s 740 mmHg 88%
    13:00 -3°C° 0.2 mm 9 m/s 740 mmHg 87%
    14:00 -2°C° 0.2 mm 8 m/s 741 mmHg 86%
    15:00 -2°C° 0.2 mm 8 m/s 742 mmHg 85%
    16:00 -2°C° 0.1 mm 7 m/s 742 mmHg 86%
    17:00 -2°C° 0.1 mm 7 m/s 743 mmHg 87%
    18:00 -2°C° 0.1 mm 6 m/s 744 mmHg 88%
    19:00 -3°C° 0.1 mm 6 m/s 745 mmHg 88%
    20:00 -3°C° 0.1 mm 6 m/s 745 mmHg 87%
    21:00 -3°C° 0.1 mm 6 m/s 746 mmHg 86%
    22:00 -3°C° 0 mm 6 m/s 747 mmHg 87%
    23:00 -4°C° 0 mm 6 m/s 747 mmHg 88%

    Poimâine, 26 Martie, Marţi

    Timp Temperatura Precipitaţii Vânt Presiune Umiditate
    00:00 -4°C° 0 mm 6 m/s 748 mmHg 89%
    01:00 -5°C° 0 mm 5 m/s 749 mmHg 89%
    02:00 -5°C° 0 mm 5 m/s 749 mmHg 89%
    03:00 -4°C° 0 mm 4 m/s 750 mmHg 90%
    04:00 -5°C° 0 mm 4 m/s 750 mmHg 90%
    05:00 -5°C° 0 mm 4 m/s 751 mmHg 91%
    06:00 -7°C° 0 mm 4 m/s 751 mmHg 91%
    07:00 -5°C° 0 mm 4 m/s 752 mmHg 90%
    08:00 -4°C° 0 mm 4 m/s 752 mmHg 89%
    09:00 -3°C° 0 mm 4 m/s 753 mmHg 87%
    10:00 -3°C° 0 mm 4 m/s 753 mmHg 87%
    11:00 -2°C° 0 mm 4 m/s 753 mmHg 88%
    12:00 -1°C° 0 mm 4 m/s 753 mmHg 88%
    13:00 -1°C° 0 mm 4 m/s 753 mmHg 87%
    14:00 -1°C° 0 mm 4 m/s 753 mmHg 86%
    15:00 -1°C° 0 mm 4 m/s 753 mmHg 85%
    16:00 -2°C° 0 mm 4 m/s 753 mmHg 86%
    17:00 -2°C° 0 mm 4 m/s 753 mmHg 87%
    18:00 -3°C° 0 mm 4 m/s 752 mmHg 88%
    19:00 -2°C° 0.1 mm 5 m/s 752 mmHg 86%
    20:00 -3°C° 0.1 mm 6 m/s 752 mmHg 85%
    21:00 -2°C° 0.1 mm 7 m/s 751 mmHg 83%
    22:00 -2°C° 0.5 mm 7 m/s 751 mmHg 83%
    23:00 -1°C° 0.5 mm 7 m/s 750 mmHg 84%

    27 Martie, Miercuri

    Timp Temperatura Precipitaţii Vânt Presiune Umiditate
    00:00 -1°C° 0.5 mm 8 m/s 750 mmHg 84%
    01:00 0°C° 0.6 mm 8 m/s 750 mmHg 84%
    02:00 0°C° 0.6 mm 8 m/s 750 mmHg 83%
    03:00 0°C° 0.6 mm 8 m/s 749 mmHg 82%
    04:00 0°C° 0.7 mm 8 m/s 749 mmHg 83%
    05:00 -1°C° 0.7 mm 8 m/s 749 mmHg 85%
    06:00 -1°C° 0.7 mm 8 m/s 749 mmHg 86%
    07:00 -1°C° 0.8 mm 8 m/s 749 mmHg 86%
    08:00 -1°C° 0.8 mm 8 m/s 749 mmHg 86%
    09:00 -1°C° 0.8 mm 7 m/s 750 mmHg 85%
    10:00 -1°C° 0.7 mm 7 m/s 750 mmHg 87%
    11:00 -1°C° 0.7 mm 7 m/s 750 mmHg 89%
    12:00 -2°C° 0.7 mm 7 m/s 750 mmHg 91%
    13:00 -2°C° 0.6 mm 6 m/s 750 mmHg 93%
    14:00 -1°C° 0.6 mm 5 m/s 751 mmHg 95%
    15:00 -1°C° 0.6 mm 5 m/s 751 mmHg 97%
    16:00 -1°C° 0.1 mm 4 m/s 751 mmHg 97%
    17:00 0°C° 0.1 mm 3 m/s 751 mmHg 97%
    18:00 +1°C° 0.1 mm 2 m/s 752 mmHg 97%
    19:00 +1°C° 0 mm 2 m/s 752 mmHg 97%
    20:00 +1°C° 0 mm 2 m/s 752 mmHg 96%
    21:00 -1°C° 0 mm 2 m/s 752 mmHg 96%
    22:00 +1°C° 0 mm 1 m/s 752 mmHg 95%
    23:00 +1°C° 0 mm 1 m/s 752 mmHg 95%

    28 Martie, Joi

    Timp Temperatura Precipitaţii Vânt Presiune Umiditate
    00:00 0°C° 0 mm 1 m/s 752 mmHg 94%
    01:00 0°C° 0 mm 1 m/s 752 mmHg 94%
    02:00 -1°C° 0 mm 1 m/s 752 mmHg 94%
    03:00 -1°C° 0 mm 1 m/s 752 mmHg 94%
    04:00 -2°C° 0 mm 1 m/s 752 mmHg 93%
    05:00 -2°C° 0 mm 1 m/s 752 mmHg 92%
    06:00 -2°C° 0 mm 1 m/s 752 mmHg 90%
    07:00 -1°C° 0 mm 1 m/s 752 mmHg 88%
    08:00 -2°C° 0 mm 2 m/s 752 mmHg 87%
    09:00 -1°C° 0 mm 2 m/s 752 mmHg 85%
    10:00 -1°C° 0 mm 2 m/s 752 mmHg 82%
    11:00 +1°C° 0 mm 2 m/s 752 mmHg 80%
    12:00 +1°C° 0 mm 2 m/s 752 mmHg 78%
    13:00 +2°C° 0 mm 2 m/s 752 mmHg 76%
    14:00 +1°C° 0 mm 3 m/s 752 mmHg 75%
    15:00 +1°C° 0 mm 3 m/s 751 mmHg 73%
    16:00 0°C° 0 mm 3 m/s 751 mmHg 77%
    17:00 -1°C° 0 mm 3 m/s 752 mmHg 80%
    18:00 -1°C° 0 mm 3 m/s 752 mmHg 84%
    19:00 -2°C° 0 mm 3 m/s 752 mmHg 86%
    20:00 -2°C° 0 mm 3 m/s 752 mmHg 88%
    21:00 -2°C° 0 mm 3 m/s 752 mmHg 90%
    22:00 -2°C° 0 mm 3 m/s 752 mmHg 91%
    23:00 -2°C° 0 mm 3 m/s 752 mmHg 92%

    29 Martie, Vineri

    Timp Temperatura Precipitaţii Vânt Presiune Umiditate
    00:00 -2°C° 0 mm 3 m/s 753 mmHg 92%
    01:00 -3°C° 0 mm 4 m/s 753 mmHg 92%
    02:00 -3°C° 0 mm 4 m/s 753 mmHg 91%
    03:00 -3°C° 0 mm 4 m/s 753 mmHg 90%
    04:00 -3°C° 0 mm 4 m/s 753 mmHg 89%
    05:00 -4°C° 0 mm 4 m/s 754 mmHg 88%
    06:00 -4°C° 0 mm 4 m/s 754 mmHg 87%
    07:00 -4°C° 0 mm 4 m/s 754 mmHg 83%
    08:00 -2°C° 0 mm 3 m/s 754 mmHg 78%
    09:00 -2°C° 0 mm 3 m/s 754 mmHg 74%
    10:00 -1°C° 0 mm 3 m/s 754 mmHg 72%
    11:00 -1°C° 0 mm 4 m/s 754 mmHg 70%
    12:00 -1°C° 0 mm 4 m/s 754 mmHg 69%
    13:00 -1°C° 0 mm 4 m/s 753 mmHg 68%
    14:00 -1°C° 0 mm 4 m/s 753 mmHg 68%
    15:00 0°C° 0 mm 5 m/s 752 mmHg 68%
    16:00 -1°C° 0 mm 5 m/s 752 mmHg 73%
    17:00 -2°C° 0 mm 5 m/s 752 mmHg 79%
    18:00 -4°C° 0 mm 5 m/s 751 mmHg 84%
    19:00 -4°C° 0.1 mm 5 m/s 751 mmHg 86%
    20:00 -4°C° 0.1 mm 5 m/s 751 mmHg 88%
    21:00 -3°C° 0.1 mm 4 m/s 751 mmHg 90%
    22:00 -3°C° 0 mm 4 m/s 751 mmHg 91%
    23:00 -3°C° 0 mm 4 m/s 751 mmHg 91%
    Arată mai mult